Weather observations for the past three days for
Payson Airport
| Date | Time (mst) | Wind (mph) | Vis. (mi.) | Weather | Sky Cond. | Temperature (ºF) | Relative Humidity | Wind Chill (°F) | Heat Index (°F) | Pressure | Precipitation (in) | ||||||
|---|---|---|---|---|---|---|---|---|---|---|---|---|---|---|---|---|---|
| Air | Dwpt | 6 hour | altimeter (in) | sea level (mb) | 1 hr | 3 hr | 6 hr | ||||||||||
| Max. | Min. | ||||||||||||||||
| 31 | 10:35 | NE 7 | 10.00 | Mostly Cloudy | BKN014 | 62.6 | 60.8 | 94% | 30.27 | 0.0 | |||||||
| 31 | 10:15 | NE 7 | 10.00 | Light Drizzle | BKN014 BKN020 | 60.8 | 60.8 | 100% | 30.28 | 0.0 | |||||||
| 31 | 09:55 | Vrbl 5 | 6.00 | Light Rain Fog/Mist | SCT007 BKN010 OVC018 | 60.8 | 59 | 94% | 30.29 | 0.0 | 0.05 | ||||||
| 31 | 09:35 | Vrbl 3 | 4.00 | Light Rain Fog/Mist | BKN007 OVC013 | 60.8 | 60.8 | 100% | 30.29 | 0.0 | |||||||
| 31 | 09:15 | S 2 | 10.00 | Light Rain | SCT015 OVC025 | 60.8 | 59 | 94% | 30.29 | 0.0 | |||||||
| 31 | 08:55 | Vrbl 3 | 10.00 | Light Rain | SCT029 SCT033 | 60.8 | 59 | 94% | 30.28 | 0.0 | 0.01 | ||||||
| 31 | 08:35 | Vrbl 5 | 4.00 | Light Rain Fog/Mist | BKN031 BKN060 BKN075 | 62.6 | 59 | 88% | 30.27 | 0.0 | |||||||
| 31 | 08:15 | Vrbl 6 | 10.00 | Overcast | OVC031 | 62.6 | 59 | 88% | 30.27 | 0.0 | |||||||
| 31 | 07:55 | E 5 | 10.00 | Mostly Cloudy | SCT031 BKN110 | 62.6 | 59 | 88% | 30.27 | 0.0 | 0.01 | ||||||
| 31 | 07:35 | Vrbl 3 | 10.00 | Mostly Cloudy | FEW010 SCT070 BKN110 | 60.8 | 59 | 94% | 30.27 | 0.0 | |||||||
| 31 | 07:15 | Vrbl 6 | 8.00 | Light Rain | SCT036 BKN070 OVC090 | 62.6 | 57.2 | 83% | 30.26 | 0.0 | |||||||
| 31 | 06:55 | Vrbl 5 | 10.00 | Mostly Cloudy | FEW070 BKN090 | 62.6 | 57.2 | 83% | 30.24 | 0.0 | |||||||
| 31 | 06:35 | Vrbl 2 | 10.00 | A Few Clouds | FEW110 | 62.6 | 57.2 | 83% | 30.22 | 0.0 | |||||||
| 31 | 06:15 | Vrbl 2 | 10.00 | Thunderstorm in Vicinity | BKN110 | 62.6 | 55.4 | 77% | 30.2 | 0.0 | |||||||
| 31 | 05:55 | E 3 | 10.00 | Partly Cloudy | SCT110 | 62.6 | 57.2 | 83% | 30.19 | 0.0 | |||||||
| 31 | 05:35 | Vrbl 5 | 10.00 | Fair | CLR | 62.6 | 57.2 | 83% | 30.17 | 0.0 | |||||||
| 31 | 05:15 | NE 3 | 10.00 | Fair | CLR | 62.6 | 57.2 | 83% | 30.17 | 0.0 | |||||||
| 31 | 04:55 | NE 5 | 10.00 | Fair | CLR | 60.8 | 57.2 | 88% | 30.17 | 0.0 | |||||||
| 31 | 04:35 | NE 8 | 10.00 | A Few Clouds | FEW120 | 62.6 | 57.2 | 83% | 30.17 | 0.0 | |||||||
| 31 | 04:15 | E 5 | 10.00 | A Few Clouds | FEW120 | 62.6 | 57.2 | 83% | 30.17 | 0.0 | |||||||
| 31 | 03:55 | E 5 | 10.00 | Fair | CLR | 60.8 | 59 | 94% | 30.16 | 0.0 | |||||||
| 31 | 03:35 | SW 5 | 10.00 | A Few Clouds | FEW100 FEW120 | 60.8 | 57.2 | 88% | 30.17 | 0.0 | |||||||
| 31 | 03:15 | SE 7 | 10.00 | Mostly Cloudy | BKN100 | 62.6 | 57.2 | 83% | 30.16 | 0.0 | |||||||
| 31 | 02:55 | N 9 | 10.00 | Thunderstorm in Vicinity | SCT070 BKN100 BKN120 | 62.6 | 57.2 | 83% | 30.16 | 0.0 | 0.12 | ||||||
| 31 | 02:35 | N 8 | 10.00 | Thunderstorm in Vicinity Rain | BKN070 BKN100 BKN120 | 60.8 | 57.2 | 88% | 30.18 | 0.0 | |||||||
| 31 | 02:15 | N 17 G 23 | 4.00 | Light Rain Fog/Mist | SCT005 SCT039 BKN060 | 60.8 | 57.2 | 88% | 30.18 | 0.0 | |||||||
| 31 | 01:55 | S 7 | 3.00 | Thunderstorm in Vicinity Rain Haze | SCT010 BKN060 OVC120 | 60.8 | 57.2 | 88% | 30.25 | 0.0 | 0.13 | ||||||
| 31 | 01:35 | NW 13 G 20 | 7.00 | Thunderstorm in Vicinity Rain | SCT031 BKN055 OVC120 | 60.8 | 57.2 | 88% | 30.2 | 0.0 | |||||||
| 31 | 01:15 | NW 12 | 5.00 | Thunderstorm in Vicinity Rain Haze | FEW027 FEW040 OVC055 | 62.6 | 59 | 88% | 30.23 | 0.0 | |||||||
| 31 | 00:55 | NW 15 G 22 | 10.00 | Thunderstorm in Vicinity Rain | SCT043 BKN055 OVC110 | 62.6 | 59 | 88% | 30.22 | 0.0 | |||||||
| 31 | 00:35 | W 18 G 31 | 7.00 | Thunderstorm in Vicinity Rain | SCT055 BKN065 OVC085 | 62.6 | 60.8 | 94% | 30.23 | 0.0 | |||||||
| 31 | 00:15 | NW 16 G 22 | 10.00 | Thunderstorm in Vicinity | SCT050 BKN065 OVC080 | 62.6 | 60.8 | 94% | 30.22 | 0.0 | |||||||
| 30 | 23:55 | W 20 G 29 | 2.50 | Thunderstorm in Vicinity Rain Haze | SCT003 BKN055 OVC075 | 64.4 | 59 | 83% | 30.19 | 0.0 | 0.03 | ||||||
| 30 | 23:35 | W 15 G 23 | 10.00 | Overcast | BKN060 OVC065 | 71.6 | 60.8 | 69% | 30.17 | 0.0 | |||||||
| 30 | 23:15 | E 3 | 10.00 | Overcast | OVC060 | 75.2 | 57.2 | 54% | 78 | 30.16 | 0.0 | ||||||
| 30 | 22:55 | NE 2 | 10.00 | Partly Cloudy | SCT060 | 73.4 | 59 | 61% | 30.16 | 0.0 | |||||||
| 30 | 22:35 | N 3 | 10.00 | Thunderstorm in Vicinity | CLR | 73.4 | 57.2 | 57% | 30.15 | 0.0 | |||||||
| 30 | 22:15 | NE 1 | 10.00 | Fair | CLR | 75.2 | 57.2 | 54% | 78 | 30.16 | 0.0 | ||||||
| 30 | 21:55 | E 5 | 10.00 | Fair | CLR | 75.2 | 57.2 | 54% | 78 | 30.16 | 0.0 | ||||||
| 30 | 21:35 | N 2 | 10.00 | Fair | CLR | 75.2 | 57.2 | 54% | 78 | 30.16 | 0.0 | ||||||
| 30 | 21:15 | W 3 | 10.00 | Fair | CLR | 77 | 55.4 | 47% | 79 | 30.16 | 0.0 | ||||||
| 30 | 20:55 | W 5 | 10.00 | Fair | CLR | 77 | 57.2 | 51% | 79 | 30.16 | 0.0 | ||||||
| 30 | 20:35 | W 6 | 10.00 | Fair | CLR | 77 | 57.2 | 51% | 79 | 30.16 | 0.0 | ||||||
| 30 | 20:15 | W 5 | 10.00 | Fair | CLR | 78.8 | 57.2 | 48% | 80 | 30.15 | 0.0 | ||||||
| 30 | 19:55 | Vrbl 5 | 10.00 | Fair | CLR | 78.8 | 55.4 | 45% | 79 | 30.14 | 0.0 | ||||||
| 30 | 19:35 | W 6 | 10.00 | Fair | CLR | 78.8 | 55.4 | 45% | 79 | 30.13 | 0.0 | ||||||
| 30 | 19:15 | SW 6 | 10.00 | Fair | CLR | 78.8 | 55.4 | 45% | 79 | 30.12 | 0.0 | ||||||
| 30 | 18:55 | SW 6 | 10.00 | Fair | CLR | 80.6 | 55.4 | 42% | 81 | 30.12 | 0.0 | ||||||
| 30 | 18:35 | W 6 | 10.00 | Fair | CLR | 82.4 | 55.4 | 40% | 82 | 30.12 | 0.0 | ||||||
| 30 | 18:15 | SW 6 | 10.00 | Fair | CLR | 82.4 | 55.4 | 40% | 82 | 30.11 | 0.0 | ||||||
| 30 | 17:55 | SW 5 | 10.00 | Fair | CLR | 84.2 | 55.4 | 37% | 83 | 30.11 | 0.0 | ||||||
| 30 | 17:35 | SW 8 | 10.00 | Fair | CLR | 84.2 | 55.4 | 37% | 83 | 30.12 | 0.0 | ||||||
| 30 | 17:15 | SW 8 G 16 | 10.00 | Fair | CLR | 84.2 | 55.4 | 37% | 83 | 30.12 | 0.0 | ||||||
| 30 | 16:55 | Vrbl 3 | 10.00 | A Few Clouds | FEW070 | 84.2 | 53.6 | 35% | 83 | 30.12 | 0.0 | ||||||
| 30 | 16:35 | W 9 | 10.00 | Mostly Cloudy | BKN070 | 86 | 55.4 | 35% | 85 | 30.12 | 0.0 | ||||||
| 30 | 16:15 | SW 8 | 10.00 | Mostly Cloudy | BKN070 BKN080 | 84.2 | 55.4 | 37% | 83 | 30.13 | 0.0 | ||||||
| 30 | 15:55 | Vrbl 7 | 10.00 | Partly Cloudy | FEW060 SCT090 | 84.2 | 55.4 | 37% | 83 | 30.13 | 0.0 | ||||||
| 30 | 15:35 | SW 9 | 10.00 | Partly Cloudy | SCT070 | 86 | 55.4 | 35% | 85 | 30.14 | 0.0 | ||||||
| 30 | 15:15 | W 10 G 16 | 10.00 | Fair | CLR | 86 | 57.2 | 38% | 85 | 30.15 | 0.0 | ||||||
| 30 | 14:55 | SW 10 | 10.00 | A Few Clouds | FEW055 | 86 | 59 | 40% | 85 | 30.16 | 0.0 | ||||||
| 30 | 14:35 | Vrbl 3 | 10.00 | A Few Clouds | FEW065 | 84.2 | 59 | 43% | 84 | 30.17 | 0.0 | ||||||
| 30 | 14:15 | SW 8 | 10.00 | A Few Clouds | FEW065 FEW075 | 84.2 | 57.2 | 40% | 83 | 30.18 | 0.0 | ||||||
| 30 | 13:55 | SW 7 | 10.00 | Fair | CLR | 84.2 | 57.2 | 40% | 83 | 30.19 | 0.0 | ||||||
| 30 | 13:35 | SW 10 | 10.00 | A Few Clouds | FEW049 | 82.4 | 59 | 45% | 82 | 30.2 | 0.0 | ||||||
| 30 | 13:15 | Vrbl 3 | 10.00 | Partly Cloudy | SCT049 | 80.6 | 59 | 48% | 81 | 30.21 | 0.0 | ||||||
| 30 | 12:55 | W 7 | 10.00 | Fair | CLR | 82.4 | 59 | 45% | 82 | 30.21 | 0.0 | ||||||
| 30 | 12:35 | Vrbl 6 | 10.00 | Fair | CLR | 82.4 | 60.8 | 48% | 83 | 30.22 | 0.0 | ||||||
| 30 | 12:15 | Vrbl 5 | 10.00 | Fair | CLR | 80.6 | 59 | 48% | 81 | 30.23 | 0.0 | ||||||
| 30 | 11:55 | SW 7 | 10.00 | Fair | CLR | 78.8 | 59 | 51% | 80 | 30.23 | 0.0 | ||||||
| 30 | 11:35 | S 6 | 10.00 | Fair | CLR | 78.8 | 59 | 51% | 80 | 30.24 | 0.0 | ||||||
| 30 | 11:15 | Vrbl 6 | 10.00 | Fair | CLR | 78.8 | 59 | 51% | 80 | 30.25 | 0.0 | ||||||
| 30 | 10:55 | S 7 | 10.00 | Fair | CLR | 78.8 | 57.2 | 48% | 80 | 30.25 | 0.0 | ||||||
| 30 | 10:35 | Vrbl 3 | 10.00 | Fair | CLR | 77 | 57.2 | 51% | 79 | 30.25 | 0.0 | ||||||
| 30 | 10:15 | Vrbl 6 | 10.00 | Fair | CLR | 77 | 59 | 54% | 79 | 30.25 | 0.0 | ||||||
| 30 | 09:55 | SE 7 | 10.00 | Fair | CLR | 75.2 | 59 | 57% | 78 | 30.26 | 0.0 | ||||||
| 30 | 09:35 | Vrbl 5 | 10.00 | Fair | CLR | 75.2 | 57.2 | 54% | 78 | 30.26 | 0.0 | ||||||
| 30 | 09:15 | Vrbl 2 | 10.00 | A Few Clouds | FEW060 | 73.4 | 59 | 61% | 30.25 | 0.0 | |||||||
| 30 | 08:55 | Vrbl 2 | 10.00 | Mostly Cloudy | BKN060 BKN070 | 73.4 | 59 | 61% | 30.26 | 0.0 | |||||||
| 30 | 08:35 | NE 3 | 10.00 | Mostly Cloudy | BKN060 BKN070 | 71.6 | 60.8 | 69% | 30.26 | 0.0 | |||||||
| 30 | 08:15 | NW 3 | 10.00 | Overcast | BKN050 OVC060 | 68 | 62.6 | 83% | 30.26 | 0.0 | |||||||
| 30 | 07:55 | E 3 | 10.00 | Thunderstorm in Vicinity | OVC050 | 68 | 60.8 | 78% | 30.25 | 0.0 | |||||||
| 30 | 07:35 | Vrbl 2 | 10.00 | Overcast | OVC050 | 68 | 60.8 | 78% | 30.25 | 0.0 | |||||||
| 30 | 07:15 | E 3 | 10.00 | Overcast | OVC050 | 66.2 | 59 | 78% | 30.24 | 0.0 | |||||||
| 30 | 06:55 | E 3 | 10.00 | Mostly Cloudy | BKN048 | 66.2 | 59 | 78% | 30.24 | 0.0 | |||||||
| 30 | 06:35 | E 3 | 10.00 | Fair | CLR | 64.4 | 59 | 83% | 30.23 | 0.0 | |||||||
| 30 | 06:15 | E 5 | 10.00 | Mostly Cloudy | BKN060 | 64.4 | 59 | 83% | 30.23 | 0.0 | |||||||
| 30 | 05:55 | E 5 | 10.00 | Mostly Cloudy | BKN060 | 64.4 | 59 | 83% | 30.22 | 0.0 | |||||||
| 30 | 05:35 | Vrbl 3 | 10.00 | A Few Clouds | FEW028 | 64.4 | 59 | 83% | 30.21 | 0.0 | |||||||
| 30 | 05:15 | E 6 | 10.00 | Fair | CLR | 62.6 | 59 | 88% | 30.2 | 0.0 | |||||||
| 30 | 04:55 | N 3 | 10.00 | Fair | CLR | 62.6 | 60.8 | 94% | 30.2 | 0.0 | |||||||
| 30 | 04:35 | N 5 | 10.00 | Fair | CLR | 62.6 | 60.8 | 94% | 30.19 | 0.0 | |||||||
| 30 | 04:15 | N 5 | 10.00 | Fair | CLR | 64.4 | 60.8 | 88% | 30.2 | 0.0 | |||||||
| 30 | 03:55 | N 6 | 10.00 | A Few Clouds | FEW050 | 62.6 | 60.8 | 94% | 30.2 | 0.0 | |||||||
| 30 | 03:35 | NE 5 | 10.00 | A Few Clouds | FEW050 | 64.4 | 60.8 | 88% | 30.2 | 0.0 | |||||||
| 30 | 03:15 | NE 7 | 10.00 | Fair | CLR | 64.4 | 62.6 | 94% | 30.2 | 0.0 | |||||||
| 30 | 02:55 | Vrbl 2 | 10.00 | A Few Clouds | FEW090 FEW110 | 64.4 | 62.6 | 94% | 30.21 | 0.0 | 0.01 | ||||||
| 30 | 02:35 | Vrbl 2 | 10.00 | Light Rain | SCT060 BKN075 BKN090 | 64.4 | 60.8 | 88% | 30.21 | 0.0 | |||||||
| 30 | 02:15 | E 7 | 10.00 | Thunderstorm in Vicinity Rain | FEW036 SCT060 OVC070 | 64.4 | 62.6 | 94% | 30.23 | 0.0 | |||||||
| 30 | 01:55 | Vrbl 3 | 10.00 | Thunderstorm in Vicinity | SCT040 BKN060 OVC075 | 64.4 | 62.6 | 94% | 30.24 | 0.0 | |||||||
| 30 | 01:35 | N 3 | 10.00 | Mostly Cloudy | SCT060 BKN080 BKN110 | 64.4 | 62.6 | 94% | 30.22 | 0.0 | |||||||
| 30 | 01:15 | NE 5 | 10.00 | Thunderstorm in Vicinity | FEW036 BKN090 BKN110 | 64.4 | 62.6 | 94% | 30.23 | 0.0 | |||||||
| 30 | 00:55 | NE 8 | 10.00 | Overcast | SCT060 BKN080 OVC120 | 64.4 | 62.6 | 94% | 30.23 | 0.0 | 0.03 | ||||||
| 30 | 00:35 | NE 8 | 10.00 | Light Rain | OVC060 | 64.4 | 62.6 | 94% | 30.25 | 0.0 | |||||||
| 30 | 00:15 | Vrbl 2 | 10.00 | Thunderstorm Light Drizzle | SCT003 BKN060 OVC075 | 64.4 | 62.6 | 94% | 30.25 | 0.0 | |||||||
| 29 | 23:55 | Vrbl 5 | 0.25 | Thunderstorm Heavy Rain Fog | OVC003 | 62.6 | 62.6 | 100% | 30.26 | 0.0 | 0.38 | ||||||
| 29 | 23:35 | S 17 G 25 | 10.00 | Thunderstorm in Vicinity | BKN048 BKN055 OVC090 | 68 | 59 | 73% | 30.24 | 0.0 | |||||||
| 29 | 23:15 | S 13 G 23 | 10.00 | Mostly Cloudy | BKN055 BKN080 | 68 | 59 | 73% | 30.23 | 0.0 | |||||||
| 29 | 22:55 | S 17 G 26 | 10.00 | A Few Clouds | FEW080 | 71.6 | 60.8 | 69% | 30.24 | 0.0 | |||||||
| 29 | 22:35 | Vrbl 3 | 10.00 | Partly Cloudy | SCT080 SCT110 | 73.4 | 60.8 | 65% | 30.2 | 0.0 | |||||||
| 29 | 22:15 | Vrbl 3 | 10.00 | Mostly Cloudy | BKN070 BKN100 | 73.4 | 59 | 61% | 30.21 | 0.0 | |||||||
| 29 | 21:55 | Vrbl 2 | 10.00 | Partly Cloudy | SCT100 | 75.2 | 57.2 | 54% | 78 | 30.19 | 0.0 | ||||||
| 29 | 21:35 | E 6 | 10.00 | Fair | CLR | 73.4 | 59 | 61% | 30.19 | 0.0 | |||||||
| 29 | 21:15 | E 1 | 10.00 | Fair | CLR | 73.4 | 59 | 61% | 30.19 | 0.0 | |||||||
| 29 | 20:55 | E 5 | 10.00 | A Few Clouds | FEW075 | 73.4 | 59 | 61% | 30.18 | 0.0 | |||||||
| 29 | 20:35 | E 3 | 10.00 | Partly Cloudy | SCT075 | 73.4 | 57.2 | 57% | 30.17 | 0.0 | |||||||
| 29 | 20:15 | N 5 | 10.00 | Light Rain | FEW035 SCT080 SCT095 | 75.2 | 57.2 | 54% | 78 | 30.16 | 0.0 | ||||||
| 29 | 19:35 | N 8 | 10.00 | Partly Cloudy | FEW080 SCT100 | 75.2 | 62.6 | 65% | 77 | 30.15 | 0.0 | ||||||
| 29 | 19:15 | NW 7 | 10.00 | A Few Clouds | FEW080 | 75.2 | 60.8 | 61% | 77 | 30.15 | 0.0 | ||||||
| 29 | 18:55 | NE 1 | 10.00 | Fair | CLR | 75.2 | 60.8 | 61% | 77 | 30.14 | 0.0 | ||||||
| 29 | 18:35 | E 3 | 10.00 | Fair | CLR | 77 | 60.8 | 57% | 79 | 30.14 | 0.0 | ||||||
| 29 | 18:15 | N 3 | 10.00 | Fair | CLR | 77 | 62.6 | 61% | 79 | 30.14 | 0.0 | ||||||
| 29 | 17:55 | N 7 | 10.00 | Fair | CLR | 78.8 | 60.8 | 54% | 80 | 30.14 | 0.0 | ||||||
| 29 | 17:35 | NE 6 | 10.00 | Fair | CLR | 78.8 | 59 | 51% | 80 | 30.14 | 0.0 | ||||||
| 29 | 17:15 | NE 5 | 10.00 | A Few Clouds | FEW120 | 75.2 | 60.8 | 61% | 77 | 30.15 | 0.0 | ||||||
| 29 | 16:55 | N 7 | 10.00 | Thunderstorm in Vicinity | FEW110 | 75.2 | 62.6 | 65% | 77 | 30.14 | 0.0 | 0.01 | |||||
| 29 | 16:35 | N 7 | 10.00 | Thunderstorm in Vicinity | FEW120 | 75.2 | 62.6 | 65% | 77 | 30.15 | 0.0 | ||||||
| 29 | 16:15 | W 7 | 7.00 | Thunderstorm in Vicinity Rain | FEW060 FEW070 FEW110 | 75.2 | 60.8 | 61% | 77 | 30.16 | 0.0 | ||||||
| 29 | 15:55 | N 6 | 10.00 | Partly Cloudy | SCT080 SCT110 | 77 | 59 | 54% | 79 | 30.15 | 0.0 | ||||||
| 29 | 15:35 | N 13 | 10.00 | Mostly Cloudy | FEW034 BKN080 BKN110 | 78.8 | 57.2 | 48% | 80 | 30.16 | 0.0 | ||||||
| 29 | 15:15 | N 13 G 16 | 10.00 | Thunderstorm in Vicinity | SCT090 SCT110 | 80.6 | 55.4 | 42% | 81 | 30.16 | 0.0 | ||||||
| 29 | 14:55 | N 16 G 23 | 10.00 | A Few Clouds | FEW080 | 82.4 | 55.4 | 40% | 82 | 30.16 | 0.0 | ||||||
| 29 | 14:35 | N 17 G 25 | 10.00 | Thunderstorm in Vicinity | SCT080 SCT100 | 86 | 53.6 | 33% | 84 | 30.16 | 0.0 | ||||||
| 29 | 14:15 | SW 15 G 23 | 10.00 | Thunderstorm in Vicinity | FEW090 | 89.6 | 48.2 | 24% | 86 | 30.15 | 0.0 | ||||||
| 29 | 13:55 | SW 12 G 20 | 10.00 | Thunderstorm | SCT080 | 86 | 53.6 | 33% | 84 | 30.16 | 0.0 | ||||||
| 29 | 13:35 | Vrbl 6 | 10.00 | A Few Clouds | FEW080 | 89.6 | 51.8 | 27% | 87 | 30.16 | 0.0 | ||||||
| 29 | 13:15 | Vrbl 6 | 10.00 | A Few Clouds | FEW080 | 89.6 | 51.8 | 27% | 87 | 30.17 | 0.0 | ||||||
| 29 | 12:35 | S 9 G 16 | 10.00 | Fair | CLR | 91.4 | 51.8 | 26% | 89 | 30.19 | 0.0 | ||||||
| 29 | 12:15 | SW 9 | 10.00 | Fair | CLR | 91.4 | 51.8 | 26% | 89 | 30.19 | 0.0 | ||||||
| 29 | 11:55 | SW 8 G 16 | 10.00 | Fair | CLR | 89.6 | 51.8 | 27% | 87 | 30.21 | 0.0 | ||||||
| 29 | 11:35 | Vrbl 6 | 10.00 | Fair | CLR | 89.6 | 51.8 | 27% | 87 | 30.22 | 0.0 | ||||||
| 29 | 11:15 | Vrbl 6 | 10.00 | Fair | CLR | 89.6 | 51.8 | 27% | 87 | 30.24 | 0.0 | ||||||
| 29 | 10:55 | Vrbl 6 | 10.00 | Fair | CLR | 89.6 | 51.8 | 27% | 87 | 30.24 | 0.0 | ||||||
| 29 | 10:35 | Vrbl 7 | 10.00 | Fair | CLR | 87.8 | 51.8 | 29% | 85 | 30.25 | 0.0 | ||||||
| 29 | 09:15 | Vrbl 3 | 10.00 | Fair | CLR | 84.2 | 50 | 31% | 82 | 30.24 | 0.0 | ||||||
| 29 | 08:55 | S 3 | 10.00 | Fair | CLR | 82.4 | 50 | 32% | 81 | 30.24 | 0.0 | ||||||
| 29 | 08:35 | Vrbl 1 | 10.00 | Fair | CLR | 82.4 | 51.8 | 35% | 81 | 30.24 | 0.0 | ||||||
| 29 | 08:15 | Vrbl 3 | 10.00 | Fair | CLR | 80.6 | 50 | 34% | 80 | 30.24 | 0.0 | ||||||
| 29 | 07:55 | Vrbl 3 | 10.00 | Fair | CLR | 80.6 | 50 | 34% | 80 | 30.23 | 0.0 | ||||||
| 29 | 07:35 | Vrbl 5 | 10.00 | Fair | CLR | 78.8 | 50 | 37% | 79 | 30.23 | 0.0 | ||||||
| 29 | 07:15 | N 3 | 10.00 | Fair | CLR | 75.2 | 53.6 | 47% | 78 | 30.23 | 0.0 | ||||||
| 29 | 06:55 | NE 3 | 10.00 | Fair | CLR | 73.4 | 50 | 44% | 30.22 | 0.0 | |||||||
| 29 | 06:35 | N 2 | 10.00 | A Few Clouds | FEW120 | 69.8 | 50 | 50% | 30.23 | 0.0 | |||||||
| 29 | 06:15 | Vrbl 2 | 10.00 | Fair | CLR | 69.8 | 50 | 50% | 30.22 | 0.0 | |||||||
| 29 | 05:55 | N 3 | 10.00 | A Few Clouds | FEW120 | 73.4 | 50 | 44% | 30.22 | 0.0 | |||||||
| 29 | 05:35 | E 2 | 10.00 | A Few Clouds | FEW120 | 69.8 | 50 | 50% | 30.21 | 0.0 | |||||||
| 29 | 05:15 | NE 2 | 10.00 | Fair | CLR | 69.8 | 50 | 50% | 30.21 | 0.0 | |||||||
| 29 | 04:55 | E 5 | 10.00 | A Few Clouds | FEW050 | 73.4 | 48.2 | 41% | 30.21 | 0.0 | |||||||
| 29 | 04:35 | E 6 | 10.00 | A Few Clouds | FEW050 | 71.6 | 48.2 | 44% | 30.21 | 0.0 | |||||||
| 29 | 04:15 | N 3 | 10.00 | A Few Clouds | FEW110 | 71.6 | 50 | 47% | 30.21 | 0.0 | |||||||
| 29 | 03:55 | N 3 | 10.00 | A Few Clouds | FEW070 FEW120 | 71.6 | 50 | 47% | 30.21 | 0.0 | |||||||
| 29 | 03:35 | N 2 | 10.00 | Fair | CLR | 71.6 | 50 | 47% | 30.21 | 0.0 | |||||||
| 29 | 03:15 | N 2 | 10.00 | Fair | CLR | 71.6 | 50 | 47% | 30.21 | 0.0 | |||||||
| 29 | 02:55 | NW 2 | 10.00 | Fair | CLR | 71.6 | 50 | 47% | 30.21 | 0.0 | |||||||
| 29 | 02:35 | N 2 | 10.00 | Fair | CLR | 71.6 | 50 | 47% | 30.21 | 0.0 | |||||||
| 29 | 02:15 | N 2 | 10.00 | Fair | CLR | 71.6 | 51.8 | 50% | 30.21 | 0.0 | |||||||
| 29 | 01:55 | NE 3 | 10.00 | Fair | CLR | 71.6 | 53.6 | 53% | 30.21 | 0.0 | |||||||
| 29 | 01:35 | Vrbl 2 | 10.00 | A Few Clouds | FEW110 | 73.4 | 53.6 | 50% | 30.22 | 0.0 | |||||||
| 29 | 01:15 | NE 5 | 10.00 | Mostly Cloudy | SCT065 BKN090 BKN110 | 75.2 | 50 | 41% | 78 | 30.23 | 0.0 | ||||||
| 29 | 00:35 | N 2 | 10.00 | Fair | CLR | 73.4 | 51.8 | 47% | 30.24 | 0.0 | |||||||
| 29 | 00:15 | NE 2 | 10.00 | Fair | CLR | 77 | 50 | 39% | 78 | 30.24 | 0.0 | ||||||
| 28 | 23:55 | Vrbl 3 | 10.00 | Fair | CLR | 77 | 50 | 39% | 78 | 30.24 | 0.0 | ||||||
| 28 | 23:35 | Vrbl 3 | 10.00 | Fair | CLR | 77 | 50 | 39% | 78 | 30.24 | 0.0 | ||||||
| 28 | 23:15 | Vrbl 3 | 10.00 | Fair | CLR | 78.8 | 48.2 | 34% | 79 | 30.24 | 0.0 | ||||||
| 28 | 22:55 | Vrbl 5 | 10.00 | Fair | CLR | 78.8 | 50 | 37% | 79 | 30.23 | 0.0 | ||||||
| 28 | 22:35 | Vrbl 3 | 10.00 | Fair | CLR | 78.8 | 50 | 37% | 79 | 30.23 | 0.0 | ||||||
| 28 | 22:15 | Vrbl 3 | 10.00 | A Few Clouds | FEW060 FEW110 | 80.6 | 50 | 34% | 80 | 30.22 | 0.0 | ||||||
| 28 | 21:55 | Vrbl 7 | 10.00 | Mostly Cloudy | SCT060 BKN070 BKN110 | 80.6 | 50 | 34% | 80 | 30.22 | 0.0 | ||||||
| 28 | 21:35 | Vrbl 3 | 10.00 | Partly Cloudy | FEW075 SCT085 SCT110 | 80.6 | 50 | 34% | 80 | 30.22 | 0.0 | ||||||
| 28 | 21:15 | Vrbl 5 | 10.00 | Fair | CLR | 82.4 | 50 | 32% | 81 | 30.22 | 0.0 | ||||||
| 28 | 20:55 | Vrbl 7 | 10.00 | A Few Clouds | FEW120 | 82.4 | 50 | 32% | 81 | 30.22 | 0.0 | ||||||
| 28 | 20:35 | E 8 | 10.00 | Partly Cloudy | SCT120 | 82.4 | 50 | 32% | 81 | 30.21 | 0.0 | ||||||
| 28 | 20:15 | W 2 | 10.00 | Fair | CLR | 82.4 | 50 | 32% | 81 | 30.19 | 0.0 | ||||||
| 28 | 19:55 | W 5 | 10.00 | Fair | CLR | 82.4 | 50 | 32% | 81 | 30.19 | 0.0 | ||||||
| 28 | 19:35 | W 5 | 10.00 | Fair | CLR | 84.2 | 50 | 31% | 82 | 30.18 | 0.0 | ||||||
| 28 | 19:15 | W 6 | 10.00 | Fair | CLR | 84.2 | 50 | 31% | 82 | 30.17 | 0.0 | ||||||
| 28 | 18:55 | W 7 | 10.00 | Fair | CLR | 86 | 50 | 29% | 84 | 30.16 | 0.0 | ||||||
| 28 | 18:35 | W 7 | 10.00 | Fair | CLR | 86 | 51.8 | 31% | 84 | 30.16 | 0.0 | ||||||
| 28 | 18:15 | Vrbl 2 | 10.00 | Fair | CLR | 86 | 55.4 | 35% | 85 | 30.17 | 0.0 | ||||||
| 28 | 17:55 | N 3 | 10.00 | Fair | CLR | 87.8 | 55.4 | 33% | 86 | 30.16 | 0.0 | ||||||
| 28 | 17:35 | Vrbl 6 | 10.00 | Fair | CLR | 89.6 | 55.4 | 31% | 88 | 30.16 | 0.0 | ||||||
| 28 | 17:15 | Vrbl 5 | 10.00 | Thunderstorm | SCT095 SCT120 | 89.6 | 55.4 | 31% | 88 | 30.16 | 0.0 | ||||||
| 28 | 16:55 | N 6 | 10.00 | Thunderstorm in Vicinity | OVC095 | 86 | 57.2 | 38% | 85 | 30.16 | 0.0 | 0.02 | |||||
| 28 | 16:35 | N 17 G 28 | 5.00 | Light Rain Haze | BKN095 | 80.6 | 60.8 | 51% | 81 | 30.15 | 0.0 | ||||||
| 28 | 16:15 | NW 5 | 10.00 | Partly Cloudy | SCT095 | 87.8 | 48.2 | 25% | 85 | 30.16 | 0.0 | ||||||
| 28 | 15:55 | Vrbl 2 | 10.00 | Fair | CLR | 89.6 | 48.2 | 24% | 86 | 30.17 | 0.0 | ||||||
| 28 | 15:35 | Vrbl 3 | 10.00 | Fair | CLR | 89.6 | 48.2 | 24% | 86 | 30.17 | 0.0 | ||||||
| 28 | 15:15 | Vrbl 6 | 10.00 | Fair | CLR | 89.6 | 48.2 | 24% | 86 | 30.18 | 0.0 | ||||||
| 28 | 14:55 | S 7 | 10.00 | Fair | CLR | 91.4 | 48.2 | 23% | 88 | 30.19 | 0.0 | ||||||
| 28 | 14:35 | W 5 | 10.00 | Fair | CLR | 91.4 | 48.2 | 23% | 88 | 30.2 | 0.0 | ||||||
| 28 | 14:15 | S 9 | 10.00 | Fair | CLR | 91.4 | 50 | 24% | 88 | 30.21 | 0.0 | ||||||
| 28 | 13:55 | W 8 | 10.00 | Fair | CLR | 91.4 | 48.2 | 23% | 88 | 30.22 | 0.0 | ||||||
| 28 | 13:35 | Vrbl 3 | 10.00 | Fair | CLR | 91.4 | 46.4 | 21% | 88 | 30.22 | 0.0 | ||||||
| 28 | 13:15 | S 9 G 17 | 10.00 | Fair | CLR | 91.4 | 48.2 | 23% | 88 | 30.23 | 0.0 | ||||||
| 28 | 12:55 | SW 12 | 10.00 | Fair | CLR | 91.4 | 48.2 | 23% | 88 | 30.24 | 0.0 | ||||||
| 28 | 12:35 | S 8 G 17 | 10.00 | Fair | CLR | 93.2 | 48.2 | 21% | 90 | 30.24 | 0.0 | ||||||
| 28 | 12:15 | S 8 G 16 | 10.00 | Fair | CLR | 91.4 | 48.2 | 23% | 88 | 30.26 | 0.0 | ||||||
| 28 | 11:55 | SE 8 | 10.00 | Fair | CLR | 91.4 | 50 | 24% | 88 | 30.27 | 0.0 | ||||||
| 28 | 11:35 | Vrbl 6 | 10.00 | Fair | CLR | 89.6 | 50 | 26% | 87 | 30.27 | 0.0 | ||||||
| 28 | 11:15 | S 8 | 10.00 | Fair | CLR | 87.8 | 50 | 27% | 85 | 30.28 | 0.0 | ||||||
| 28 | 10:55 | SE 6 | 10.00 | Fair | CLR | 87.8 | 50 | 27% | 85 | 30.27 | 0.0 | ||||||
| Date | Time (mst) | Wind (mph) | Vis. (mi.) | Weather | Sky Cond. | Air | Dwpt | Max. | Min. | Relative Humidity | Wind Chill (°F) | Heat Index (°F) | altimeter (in) | sea level (mb) | 1 hr | 3 hr | 6 hr |
| 6 hour | |||||||||||||||||
| Temperature (ºF) | Pressure | Precipitation (in) | |||||||||||||||